Year,Month,Day,Hour,Minute,Value (Times are PST for temperature in C)
2009,07,01,00,00,14.90
2009,07,01,00,01,15.20
2009,07,01,00,02,15.40
2009,07,01,00,03,15.50
2009,07,01,00,04,15.70
2009,07,01,00,05,15.70
2009,07,01,00,06,15.70
2009,07,01,00,07,15.70
2009,07,01,00,08,15.80
2009,07,01,00,09,15.90
2009,07,01,00,10,16.10
2009,07,01,00,11,16.20
2009,07,01,00,12,16.30
2009,07,01,00,13,16.50
2009,07,01,00,14,16.60
2009,07,01,00,15,16.80
2009,07,01,00,16,16.90
2009,07,01,00,17,16.90
2009,07,01,00,18,17.00
2009,07,01,00,19,17.00
2009,07,01,00,20,17.10
2009,07,01,00,21,17.20
2009,07,01,00,22,17.10
2009,07,01,00,23,17.10
2009,07,01,00,24,17.10
2009,07,01,00,25,17.00
2009,07,01,00,26,17.00
2009,07,01,00,27,16.90
2009,07,01,00,28,16.80
2009,07,01,00,29,16.70
2009,07,01,00,30,16.70
2009,07,01,00,31,16.70
2009,07,01,00,32,16.70
2009,07,01,00,33,16.70
2009,07,01,00,34,16.70
2009,07,01,00,35,16.70
2009,07,01,00,36,16.70
2009,07,01,00,37,16.70
2009,07,01,00,38,16.70
2009,07,01,00,39,16.80
2009,07,01,00,40,16.80
2009,07,01,00,41,16.90
2009,07,01,00,42,16.90
2009,07,01,00,43,17.00
2009,07,01,00,44,17.00
2009,07,01,00,45,17.10
2009,07,01,00,46,17.10
2009,07,01,00,47,17.20
2009,07,01,00,48,17.30
2009,07,01,00,49,17.30
2009,07,01,00,50,17.40
2009,07,01,00,51,17.50
2009,07,01,00,52,17.50
2009,07,01,00,53,17.50
2009,07,01,00,54,17.50
2009,07,01,00,55,17.50
2009,07,01,00,56,17.50
2009,07,01,00,57,17.50
2009,07,01,00,58,17.60
2009,07,01,00,59,17.60
2009,07,01,01,00,17.50
2009,07,01,01,01,17.60
2009,07,01,01,02,17.50
2009,07,01,01,03,17.50
2009,07,01,01,04,17.50
2009,07,01,01,05,17.50
2009,07,01,01,06,17.40
2009,07,01,01,07,17.40
2009,07,01,01,08,17.40
2009,07,01,01,09,17.30
2009,07,01,01,10,17.30
2009,07,01,01,11,17.10
2009,07,01,01,12,17.00
2009,07,01,01,13,16.90
2009,07,01,01,14,16.70
2009,07,01,01,15,16.60
2009,07,01,01,16,16.40
2009,07,01,01,17,16.40
2009,07,01,01,18,16.30
2009,07,01,01,19,16.30
2009,07,01,01,20,16.20
2009,07,01,01,21,16.20
2009,07,01,01,22,16.20
2009,07,01,01,23,16.20
2009,07,01,01,24,16.20
2009,07,01,01,25,16.20
2009,07,01,01,26,16.30
2009,07,01,01,27,16.40
2009,07,01,01,28,16.50
2009,07,01,01,29,16.50
2009,07,01,01,30,16.40
2009,07,01,01,31,16.40
2009,07,01,01,32,16.30
2009,07,01,01,33,16.10
2009,07,01,01,34,16.10
2009,07,01,01,35,16.00
2009,07,01,01,36,16.00
2009,07,01,01,37,16.00
2009,07,01,01,38,16.00
2009,07,01,01,39,16.00
2009,07,01,01,40,16.10
2009,07,01,01,41,16.10
2009,07,01,01,42,16.20
2009,07,01,01,43,16.20
2009,07,01,01,44,16.20
2009,07,01,01,45,16.20
2009,07,01,01,46,16.10
2009,07,01,01,47,16.00
2009,07,01,01,48,16.00
2009,07,01,01,49,15.90
2009,07,01,01,50,15.80
2009,07,01,01,51,15.80
2009,07,01,01,52,15.70
2009,07,01,01,53,15.70
2009,07,01,01,54,15.60
2009,07,01,01,55,15.60
2009,07,01,01,56,15.50
2009,07,01,01,57,15.40
2009,07,01,01,58,15.40
2009,07,01,01,59,15.40
2009,07,01,02,00,15.40
2009,07,01,02,01,15.40
2009,07,01,02,02,15.40
2009,07,01,02,03,15.40
2009,07,01,02,04,15.40
2009,07,01,02,05,15.40
2009,07,01,02,06,15.40
2009,07,01,02,07,15.40
2009,07,01,02,08,15.40
2009,07,01,02,09,15.40
2009,07,01,08,40,18.10
2009,07,01,08,41,18.10
2009,07,01,08,42,18.10
2009,07,01,08,43,18.10
2009,07,01,08,44,18.10
2009,07,01,08,45,18.20
2009,07,01,08,46,18.30
2009,07,01,08,47,18.30
2009,07,01,08,48,18.30
2009,07,01,08,49,18.40
2009,07,01,08,50,18.50
2009,07,01,08,51,18.60
2009,07,01,08,52,18.70
2009,07,01,08,53,18.80
2009,07,01,08,54,18.80
2009,07,01,08,55,18.70
2009,07,01,08,56,18.70
2009,07,01,08,57,18.80
2009,07,01,08,58,18.80
2009,07,01,08,59,18.70
2009,07,01,09,00,18.60
2009,07,01,09,01,18.50
2009,07,01,09,02,18.40
2009,07,01,09,03,18.40
2009,07,01,09,04,18.20
2009,07,01,09,05,18.10
2009,07,01,09,06,18.10
2009,07,01,09,07,18.10
2009,07,01,09,08,18.20
2009,07,01,09,09,18.20
2009,07,01,09,10,18.30
2009,07,01,09,11,18.30
2009,07,01,09,12,18.30
2009,07,01,09,13,18.30
2009,07,01,09,14,18.40
2009,07,01,09,15,18.40
2009,07,01,09,16,18.40
2009,07,01,09,17,18.40
2009,07,01,09,18,18.40
2009,07,01,09,19,18.40
2009,07,01,09,20,18.40
2009,07,01,09,21,18.50
2009,07,01,09,22,18.60
2009,07,01,09,23,18.60
2009,07,01,09,24,18.50
2009,07,01,09,25,18.40
2009,07,01,09,26,18.40
2009,07,01,09,27,18.40
2009,07,01,09,28,18.30
2009,07,01,09,29,18.30
2009,07,01,09,30,18.40
2009,07,01,09,31,18.40
2009,07,01,09,32,18.40
2009,07,01,09,33,18.50
2009,07,01,09,34,18.60
2009,07,01,09,35,18.60
2009,07,01,09,36,18.60
2009,07,01,09,37,18.60
2009,07,01,09,38,18.60
2009,07,01,09,39,18.50
2009,07,01,09,40,18.60
2009,07,01,09,41,18.70
2009,07,01,09,42,18.80
2009,07,01,09,43,19.00
2009,07,01,09,44,19.20
2009,07,01,09,45,19.30
2009,07,01,09,46,19.50
2009,07,01,09,47,19.60
2009,07,01,09,48,19.50
2009,07,01,09,49,19.50
2009,07,01,09,50,19.50
2009,07,01,09,51,19.60
2009,07,01,09,52,19.70
2009,07,01,09,53,19.80
2009,07,01,09,54,19.80
2009,07,01,09,55,19.70
2009,07,01,09,56,19.60
2009,07,01,09,57,19.60
2009,07,01,09,58,19.60
2009,07,01,09,59,19.60
2009,07,01,10,00,19.70
2009,07,01,10,01,19.80
2009,07,01,10,02,19.80
2009,07,01,10,03,19.80
2009,07,01,10,04,19.70
2009,07,01,10,05,19.60
2009,07,01,10,06,19.70
2009,07,01,10,07,19.70
2009,07,01,10,08,19.60
2009,07,01,10,09,19.50
2009,07,01,10,10,19.50
2009,07,01,10,11,19.40
2009,07,01,10,12,19.40
2009,07,01,10,13,19.40
2009,07,01,10,14,19.40
2009,07,01,10,15,19.40
2009,07,01,10,16,19.40
2009,07,01,10,17,19.40
2009,07,01,10,18,19.30
2009,07,01,10,19,19.40
2009,07,01,10,20,19.50
2009,07,01,10,21,19.60
2009,07,01,10,22,19.70
2009,07,01,10,23,19.80
2009,07,01,10,24,19.80
2009,07,01,10,25,19.80
2009,07,01,10,26,19.80
2009,07,01,10,27,19.80
2009,07,01,10,28,19.80
2009,07,01,10,29,19.80
2009,07,01,10,30,19.80
2009,07,01,10,31,19.80
2009,07,01,10,32,19.70
2009,07,01,10,33,19.60
2009,07,01,10,34,19.50
2009,07,01,10,35,19.60
2009,07,01,10,36,19.60
2009,07,01,10,37,19.70
2009,07,01,10,38,19.70
2009,07,01,10,39,19.90
2009,07,01,10,40,20.00
2009,07,01,10,41,20.00
2009,07,01,10,42,20.20
2009,07,01,10,43,20.30
2009,07,01,10,44,20.30
2009,07,01,10,45,20.40
2009,07,01,10,46,20.60
2009,07,01,10,47,20.70
2009,07,01,10,48,20.70
2009,07,01,10,49,20.70
2009,07,01,10,50,20.60
2009,07,01,10,51,20.40
2009,07,01,10,52,20.30
2009,07,01,10,53,20.20
2009,07,01,10,54,20.10
2009,07,01,10,55,20.10
2009,07,01,10,56,20.10
2009,07,01,10,57,20.20
2009,07,01,10,58,20.30
2009,07,01,10,59,20.30
2009,07,01,11,00,20.30
2009,07,01,11,01,20.30
2009,07,01,11,02,20.30
2009,07,01,11,03,20.30
2009,07,01,11,04,20.10
2009,07,01,11,05,20.10
2009,07,01,11,06,20.10
2009,07,01,11,07,20.10
2009,07,01,11,08,20.20
2009,07,01,11,09,20.30
2009,07,01,11,10,20.40
2009,07,01,11,11,20.50
2009,07,01,11,12,20.60
2009,07,01,11,13,20.60
2009,07,01,11,14,20.80
2009,07,01,11,15,20.90
2009,07,01,11,16,21.00
2009,07,01,11,17,21.10
2009,07,01,11,18,21.20
2009,07,01,11,19,21.20
2009,07,01,11,20,21.20
2009,07,01,11,21,21.20
2009,07,01,11,22,21.10
2009,07,01,11,23,21.10
2009,07,01,11,24,21.10
2009,07,01,11,25,21.00
2009,07,01,11,26,20.90
2009,07,01,11,27,20.80
2009,07,01,11,28,20.50
2009,07,01,11,29,20.40
2009,07,01,11,30,20.40
2009,07,01,11,31,20.40
2009,07,01,11,32,20.40
2009,07,01,11,33,20.40
2009,07,01,11,34,20.50
2009,07,01,11,35,20.50
2009,07,01,11,36,20.60
2009,07,01,11,37,20.70
2009,07,01,11,38,20.80
2009,07,01,11,39,20.80
2009,07,01,11,40,20.80
2009,07,01,11,41,20.70
2009,07,01,11,42,20.70
2009,07,01,11,43,20.70
2009,07,01,11,44,20.80
2009,07,01,11,45,20.80
2009,07,01,11,46,20.90
2009,07,01,11,47,20.90
2009,07,01,11,48,20.80
2009,07,01,11,49,20.70
2009,07,01,11,50,20.70
2009,07,01,11,51,20.60
2009,07,01,11,52,20.60
2009,07,01,11,53,20.60
2009,07,01,11,54,20.60
2009,07,01,11,55,20.70
2009,07,01,11,56,20.70
2009,07,01,11,57,20.70
2009,07,01,11,58,20.70
2009,07,01,11,59,20.70
2009,07,01,12,00,20.70
2009,07,01,12,01,20.80
2009,07,01,12,02,20.90
2009,07,01,12,03,21.00
2009,07,01,12,04,21.00
2009,07,01,12,05,20.90
2009,07,01,12,06,20.80
2009,07,01,12,07,20.80
2009,07,01,12,08,20.80
2009,07,01,12,09,20.80
2009,07,01,12,10,20.80
2009,07,01,12,11,20.90
2009,07,01,12,12,21.00
2009,07,01,12,13,21.10
2009,07,01,12,14,21.20
2009,07,01,12,15,21.20
2009,07,01,12,16,21.30
2009,07,01,12,17,21.40
2009,07,01,12,18,21.40
2009,07,01,12,19,21.30
2009,07,01,12,20,21.20
2009,07,01,12,21,21.20
2009,07,01,12,22,21.20
2009,07,01,12,23,21.30
2009,07,01,12,24,21.40
2009,07,01,12,25,21.40
2009,07,01,12,26,21.40
2009,07,01,12,27,21.40
2009,07,01,12,28,21.30
2009,07,01,12,29,21.40
2009,07,01,12,30,21.40
2009,07,01,12,31,21.50
2009,07,01,12,32,21.60
2009,07,01,12,33,21.60
2009,07,01,12,34,21.60
2009,07,01,12,35,21.70
2009,07,01,12,36,21.80
2009,07,01,12,37,21.90
2009,07,01,12,38,21.90
2009,07,01,12,39,21.80
2009,07,01,12,40,21.80
2009,07,01,12,41,21.80
2009,07,01,12,42,21.70
2009,07,01,12,43,21.70
2009,07,01,12,44,21.60
2009,07,01,12,45,21.60
2009,07,01,12,46,21.70
2009,07,01,12,47,21.70
2009,07,01,12,48,21.70
2009,07,01,12,49,21.60
2009,07,01,12,50,21.60
2009,07,01,12,51,21.60
2009,07,01,12,52,21.60
2009,07,01,12,53,21.70
2009,07,01,12,54,21.80
2009,07,01,12,55,21.80
2009,07,01,12,56,21.90
2009,07,01,12,57,21.90
2009,07,01,12,58,21.80
2009,07,01,12,59,21.80
2009,07,01,13,00,21.80
2009,07,01,13,01,21.90
2009,07,01,13,02,21.90
2009,07,01,13,03,22.00
2009,07,01,13,04,22.10
2009,07,01,13,05,22.20
2009,07,01,13,06,22.30
2009,07,01,13,07,22.20
2009,07,01,13,08,22.20
2009,07,01,13,09,22.30
2009,07,01,13,10,22.30
2009,07,01,13,11,22.40
2009,07,01,13,12,22.30
2009,07,01,13,13,22.30
2009,07,01,13,14,22.30
2009,07,01,13,15,22.30
2009,07,01,13,16,22.30
2009,07,01,13,17,22.30
2009,07,01,13,18,22.30
2009,07,01,13,19,22.30
2009,07,01,13,20,22.30
2009,07,01,13,21,22.40
2009,07,01,13,22,22.40
2009,07,01,13,23,22.40
2009,07,01,13,24,22.40
2009,07,01,13,25,22.40
2009,07,01,13,26,22.30
2009,07,01,13,27,22.30
2009,07,01,13,28,22.20
2009,07,01,13,29,22.20
2009,07,01,13,30,22.20
2009,07,01,13,31,22.10
2009,07,01,13,32,22.00
2009,07,01,13,33,21.90
2009,07,01,13,34,21.90
2009,07,01,13,35,21.80
2009,07,01,13,36,21.90
2009,07,01,13,37,21.90
2009,07,01,13,38,22.00
2009,07,01,13,39,22.10
2009,07,01,13,40,22.10
2009,07,01,13,41,22.10
2009,07,01,13,42,22.10
2009,07,01,13,43,22.00
2009,07,01,13,44,22.00
2009,07,01,13,45,22.10
2009,07,01,13,46,22.10
2009,07,01,13,47,22.20
2009,07,01,13,48,22.20
2009,07,01,13,49,22.30
2009,07,01,13,50,22.30
2009,07,01,13,51,22.40
2009,07,01,13,52,22.40
2009,07,01,13,53,22.30
2009,07,01,13,54,22.30
2009,07,01,13,55,22.40
2009,07,01,13,56,22.30
2009,07,01,13,57,22.40
2009,07,01,13,58,22.40
2009,07,01,13,59,22.40
2009,07,01,14,00,22.40
2009,07,01,14,01,22.40
2009,07,01,14,02,22.40
2009,07,01,14,03,22.30
2009,07,01,14,04,22.30
2009,07,01,14,05,22.40
2009,07,01,14,06,22.40
2009,07,01,14,07,22.50
2009,07,01,14,08,22.60
2009,07,01,14,09,22.70
2009,07,01,14,10,22.80
2009,07,01,14,11,22.80
2009,07,01,14,12,22.70
2009,07,01,14,13,22.70
2009,07,01,14,14,22.70
2009,07,01,14,15,22.70
2009,07,01,14,16,22.70
2009,07,01,14,17,22.70
2009,07,01,14,18,22.70
2009,07,01,14,19,22.80
2009,07,01,14,20,22.80
2009,07,01,14,21,22.80
2009,07,01,14,22,22.90
2009,07,01,14,23,23.00
2009,07,01,14,24,23.10
2009,07,01,14,25,23.10
2009,07,01,14,26,23.20
2009,07,01,14,27,23.20
2009,07,01,14,28,23.30
2009,07,01,14,29,23.30
2009,07,01,14,30,23.30
2009,07,01,14,31,23.20
2009,07,01,14,32,23.20
2009,07,01,14,33,23.20
2009,07,01,14,34,23.30
2009,07,01,14,35,23.30
2009,07,01,14,36,23.30
2009,07,01,14,37,23.30
2009,07,01,14,38,23.30
2009,07,01,14,39,23.30
2009,07,01,14,40,23.30
2009,07,01,14,41,23.30
2009,07,01,14,42,23.20
2009,07,01,14,43,23.20
2009,07,01,14,44,23.20
2009,07,01,14,45,23.30
2009,07,01,14,46,23.30
2009,07,01,14,47,23.30
2009,07,01,14,48,23.30
2009,07,01,14,49,23.30
2009,07,01,14,50,23.30
2009,07,01,14,51,23.30
2009,07,01,14,52,23.30
2009,07,01,14,53,23.30
2009,07,01,14,54,23.30
2009,07,01,14,55,23.30
2009,07,01,14,56,23.40
2009,07,01,14,57,23.40
2009,07,01,14,58,23.40
2009,07,01,14,59,23.40
2009,07,01,15,00,23.40
2009,07,01,15,01,23.50
2009,07,01,15,02,23.60
2009,07,01,15,03,23.60
2009,07,01,15,04,23.60
2009,07,01,15,05,23.70
2009,07,01,15,06,23.60
2009,07,01,15,07,23.60
2009,07,01,15,08,23.60
2009,07,01,15,09,23.60
2009,07,01,15,10,23.50
2009,07,01,15,11,23.40
2009,07,01,15,12,23.40
2009,07,01,15,13,23.50
2009,07,01,15,14,23.50
2009,07,01,15,15,23.60
2009,07,01,15,16,23.70
2009,07,01,15,17,23.70
2009,07,01,15,18,23.80
2009,07,01,15,19,23.90
2009,07,01,15,20,23.90
2009,07,01,15,21,23.90
2009,07,01,15,22,24.00
2009,07,01,15,23,24.10
2009,07,01,15,24,24.20
2009,07,01,15,25,24.30
2009,07,01,15,26,24.20
2009,07,01,15,27,24.20
2009,07,01,15,28,24.20
2009,07,01,15,29,24.10
2009,07,01,15,30,24.10
2009,07,01,15,31,24.10
2009,07,01,15,32,24.10
2009,07,01,15,33,24.10
2009,07,01,15,34,24.10
2009,07,01,15,35,24.10
2009,07,01,15,36,24.20
2009,07,01,15,37,24.20
2009,07,01,15,38,24.20
2009,07,01,15,39,24.30
2009,07,01,15,40,24.30
2009,07,01,15,41,24.40
2009,07,01,15,42,24.40
2009,07,01,15,43,24.50
2009,07,01,15,44,24.60
2009,07,01,15,45,24.60
2009,07,01,15,46,24.70
2009,07,01,15,47,24.80
2009,07,01,15,48,24.90
2009,07,01,15,49,25.00
2009,07,01,15,50,25.10
2009,07,01,15,51,25.10
2009,07,01,15,52,25.10
2009,07,01,15,53,25.10
2009,07,01,15,54,25.10
2009,07,01,15,55,25.10
2009,07,01,15,56,25.20
2009,07,01,15,57,25.20
2009,07,01,15,58,25.20
2009,07,01,15,59,25.20
2009,07,01,16,00,25.20
2009,07,01,16,01,25.20
2009,07,01,16,02,25.20
2009,07,01,16,03,25.20
2009,07,01,16,04,25.20
2009,07,01,16,05,25.20
2009,07,01,16,06,25.20
2009,07,01,16,07,25.30
2009,07,01,16,08,25.30
2009,07,01,16,09,25.30
2009,07,01,16,10,25.40
2009,07,01,16,11,25.40
2009,07,01,16,12,25.30
2009,07,01,16,13,25.30
2009,07,01,16,14,25.40
2009,07,01,16,15,25.30
2009,07,01,16,16,25.20
2009,07,01,16,17,25.20
2009,07,01,16,18,25.20
2009,07,01,16,19,25.20
2009,07,01,16,20,25.20
2009,07,01,16,21,25.20
2009,07,01,16,22,25.20
2009,07,01,16,23,25.30
2009,07,01,16,24,25.20
2009,07,01,16,25,25.10
2009,07,01,16,26,25.00
2009,07,01,16,27,25.00
2009,07,01,16,28,25.10
2009,07,01,16,29,25.10
2009,07,01,16,30,25.20
2009,07,01,16,31,25.20
2009,07,01,16,32,25.10
2009,07,01,16,33,25.00
2009,07,01,16,34,24.90
2009,07,01,16,35,24.90
2009,07,01,16,36,24.80
2009,07,01,16,37,24.80
2009,07,01,16,38,24.80
2009,07,01,16,39,24.80
2009,07,01,16,40,24.80
2009,07,01,16,41,24.90
2009,07,01,16,42,25.00
2009,07,01,16,43,25.00
2009,07,01,16,44,25.10
2009,07,01,16,45,25.10
2009,07,01,16,46,25.00
2009,07,01,16,47,25.00
2009,07,01,16,48,24.90
2009,07,01,16,49,24.80
2009,07,01,16,50,24.70
2009,07,01,16,51,24.70
2009,07,01,16,52,24.70
2009,07,01,16,53,24.70
2009,07,01,16,54,24.70
2009,07,01,16,55,24.70
2009,07,01,16,56,24.70
2009,07,01,16,57,24.80
2009,07,01,16,58,24.80
2009,07,01,16,59,24.80
2009,07,01,17,00,24.80
2009,07,01,17,01,24.80
2009,07,01,17,02,24.80
2009,07,01,17,03,24.80
2009,07,01,17,04,24.80
2009,07,01,17,05,24.80
2009,07,01,17,06,24.80
2009,07,01,17,07,24.80
2009,07,01,17,08,24.80
2009,07,01,17,09,24.80
2009,07,01,17,10,24.80
2009,07,01,17,11,24.90
2009,07,01,17,12,25.00
2009,07,01,17,13,25.00
2009,07,01,17,14,25.10
2009,07,01,17,15,25.10
2009,07,01,17,16,25.20
2009,07,01,17,17,25.30
2009,07,01,17,18,25.40
2009,07,01,17,19,25.40
2009,07,01,17,20,25.50
2009,07,01,17,21,25.50
2009,07,01,17,22,25.50
2009,07,01,17,23,25.40
2009,07,01,17,24,25.40
2009,07,01,17,25,25.40
2009,07,01,17,26,25.40
2009,07,01,17,27,25.50
2009,07,01,17,28,25.60
2009,07,01,17,29,25.50
2009,07,01,17,30,25.50
2009,07,01,17,31,25.50
2009,07,01,17,32,25.50
2009,07,01,17,33,25.60
2009,07,01,17,34,25.60
2009,07,01,17,35,25.60
2009,07,01,17,36,25.60
2009,07,01,17,37,25.60
2009,07,01,17,38,25.60
2009,07,01,17,39,25.60
2009,07,01,17,40,25.60
2009,07,01,17,41,25.60
2009,07,01,17,42,25.60
2009,07,01,17,43,25.60
2009,07,01,17,44,25.60
2009,07,01,17,45,25.60
2009,07,01,17,46,25.70
2009,07,01,17,47,25.70
2009,07,01,17,48,25.60
2009,07,01,17,49,25.60
2009,07,01,17,50,25.50
2009,07,01,17,51,25.50
2009,07,01,17,52,25.50
2009,07,01,17,53,25.50
2009,07,01,17,54,25.60
2009,07,01,17,55,25.60
2009,07,01,17,56,25.60
2009,07,01,17,57,25.60
2009,07,01,17,58,25.60
2009,07,01,17,59,25.60
2009,07,01,18,00,25.70
2009,07,01,18,01,25.70
2009,07,01,18,02,25.70
2009,07,01,18,03,25.70
2009,07,01,18,04,25.80
2009,07,01,18,05,25.80
2009,07,01,18,06,25.70
2009,07,01,18,07,25.70
2009,07,01,18,08,25.70
2009,07,01,18,09,25.70
2009,07,01,18,10,25.60
2009,07,01,18,11,25.60
2009,07,01,18,12,25.60
2009,07,01,18,13,25.60
2009,07,01,18,14,25.60
2009,07,01,18,15,25.50
2009,07,01,18,16,25.40
2009,07,01,18,17,25.30
2009,07,01,18,18,25.30
2009,07,01,18,19,25.20
2009,07,01,18,20,25.10
2009,07,01,18,21,25.10
2009,07,01,18,22,25.10
2009,07,01,18,23,25.10
2009,07,01,18,24,25.20
2009,07,01,18,25,25.20
2009,07,01,18,26,25.10
2009,07,01,18,27,25.10
2009,07,01,18,28,25.10
2009,07,01,18,29,25.00
2009,07,01,18,30,24.90
2009,07,01,18,31,24.90
2009,07,01,18,32,24.90
2009,07,01,18,33,24.90
2009,07,01,18,34,24.90
2009,07,01,18,35,24.90
2009,07,01,18,36,24.80
2009,07,01,18,37,24.90
2009,07,01,18,38,24.90
2009,07,01,18,39,24.90
2009,07,01,18,40,24.90
2009,07,01,18,41,24.90
2009,07,01,18,42,24.90
2009,07,01,18,43,24.90
2009,07,01,18,44,24.90
2009,07,01,18,45,24.90
2009,07,01,18,46,24.90
2009,07,01,18,47,24.80
2009,07,01,18,48,24.70
2009,07,01,18,49,24.70
2009,07,01,18,50,24.70
2009,07,01,18,51,24.70
2009,07,01,18,52,24.70
2009,07,01,18,53,24.80
2009,07,01,18,54,24.80
2009,07,01,18,55,24.80
2009,07,01,18,56,24.90
2009,07,01,18,57,24.90
2009,07,01,18,58,24.90
2009,07,01,18,59,24.90
2009,07,01,19,00,24.90
2009,07,01,19,01,24.90
2009,07,01,19,02,24.90
2009,07,01,19,03,24.80
2009,07,01,19,04,24.80
2009,07,01,19,05,24.80
2009,07,01,19,06,24.80
2009,07,01,19,07,24.70
2009,07,01,19,08,24.70
2009,07,01,19,09,24.70
2009,07,01,19,10,24.70
2009,07,01,19,11,24.70
2009,07,01,19,12,24.70
2009,07,01,19,13,24.70
2009,07,01,19,14,24.60
2009,07,01,19,15,24.60
2009,07,01,19,16,24.60
2009,07,01,19,17,24.60
2009,07,01,19,18,24.60
2009,07,01,19,19,24.60
2009,07,01,19,20,24.60
2009,07,01,19,21,24.60
2009,07,01,19,22,24.60
2009,07,01,19,23,24.60
2009,07,01,19,24,24.60
2009,07,01,19,25,24.60
2009,07,01,19,26,24.50
2009,07,01,19,27,24.50
2009,07,01,19,28,24.50
2009,07,01,19,29,24.40
2009,07,01,19,30,24.40
2009,07,01,19,31,24.30
2009,07,01,19,32,24.30
2009,07,01,19,33,24.30
2009,07,01,19,34,24.30
2009,07,01,19,35,24.30
2009,07,01,19,36,24.30
2009,07,01,19,37,24.30
2009,07,01,19,38,24.20
2009,07,01,19,39,24.20
2009,07,01,19,40,24.20
2009,07,01,19,41,24.20
2009,07,01,19,42,24.20
2009,07,01,19,43,24.20
2009,07,01,19,44,24.20
2009,07,01,19,45,24.10
2009,07,01,19,46,24.10
2009,07,01,19,47,24.10
2009,07,01,19,48,24.10
2009,07,01,19,49,24.10
2009,07,01,19,50,24.10
2009,07,01,19,51,24.00
2009,07,01,19,52,24.00
2009,07,01,19,53,23.90
2009,07,01,19,54,23.90
2009,07,01,19,55,23.80
2009,07,01,19,56,23.80
2009,07,01,19,57,23.80
2009,07,01,19,58,23.70
2009,07,01,19,59,23.70
2009,07,01,20,00,23.70
2009,07,01,20,01,23.60
2009,07,01,20,02,23.60
2009,07,01,20,03,23.60
2009,07,01,20,04,23.50
2009,07,01,20,05,23.50
2009,07,01,20,06,23.40
2009,07,01,20,07,23.40
2009,07,01,20,08,23.30
2009,07,01,20,09,23.20
2009,07,01,20,10,23.20
2009,07,01,20,11,23.10
2009,07,01,20,12,23.10
2009,07,01,20,13,23.00
2009,07,01,20,14,23.00
2009,07,01,20,15,22.90
2009,07,01,20,16,22.90
2009,07,01,20,17,22.80
2009,07,01,20,18,22.80
2009,07,01,20,19,22.80
2009,07,01,20,20,22.70
2009,07,01,20,21,22.70
2009,07,01,20,22,22.70
2009,07,01,20,23,22.70
2009,07,01,20,24,22.70
2009,07,01,20,25,22.70
2009,07,01,20,26,22.60
2009,07,01,20,27,22.60
2009,07,01,20,28,22.50
2009,07,01,20,29,22.50
2009,07,01,20,30,22.40
2009,07,01,20,31,22.30
2009,07,01,20,32,22.20
2009,07,01,20,33,22.10
2009,07,01,20,34,22.10
2009,07,01,20,35,22.00
2009,07,01,20,36,21.80
2009,07,01,20,37,21.80
2009,07,01,20,38,21.70
2009,07,01,20,39,21.70
2009,07,01,20,40,21.60
2009,07,01,20,41,21.50
2009,07,01,20,42,21.40
2009,07,01,20,43,21.30
2009,07,01,20,44,21.30
2009,07,01,20,45,21.20
2009,07,01,20,46,21.10
2009,07,01,20,47,21.00
2009,07,01,20,48,20.90
2009,07,01,20,49,20.80
2009,07,01,20,50,20.70
2009,07,01,20,51,20.60
2009,07,01,20,52,20.50
2009,07,01,20,53,20.40
2009,07,01,20,54,20.30
2009,07,01,20,55,20.20
2009,07,01,20,56,20.10
2009,07,01,20,57,20.00
2009,07,01,20,58,19.90
2009,07,01,20,59,19.80
2009,07,01,21,00,19.70
2009,07,01,21,01,19.60
2009,07,01,21,02,19.50
2009,07,01,21,03,19.40
2009,07,01,21,04,19.30
2009,07,01,21,05,19.30
2009,07,01,21,06,19.20
2009,07,01,21,07,19.20
2009,07,01,21,08,19.10
2009,07,01,21,09,19.10
2009,07,01,21,10,19.10
2009,07,01,21,11,19.10
2009,07,01,21,12,19.00
2009,07,01,21,13,19.00
2009,07,01,21,14,19.00
2009,07,01,21,15,18.90
2009,07,01,21,16,18.90
2009,07,01,21,17,18.80
2009,07,01,21,18,18.80
2009,07,01,21,19,18.80
2009,07,01,21,20,18.80
2009,07,01,21,21,18.80
2009,07,01,21,22,18.80
2009,07,01,21,23,18.80
2009,07,01,21,24,18.80
2009,07,01,21,25,18.80
2009,07,01,21,26,18.60
2009,07,01,21,27,18.50
2009,07,01,21,28,18.40
2009,07,01,21,29,18.30
2009,07,01,21,30,18.20
2009,07,01,21,31,18.10
2009,07,01,21,32,17.90
2009,07,01,21,33,17.80
2009,07,01,21,34,17.70
2009,07,01,21,35,17.70
2009,07,01,21,36,17.60
2009,07,01,21,37,17.50
2009,07,01,21,38,17.40
2009,07,01,21,39,17.30
2009,07,01,21,40,17.30
2009,07,01,21,41,17.20
2009,07,01,21,42,17.10
2009,07,01,21,43,17.10
2009,07,01,21,44,17.00
2009,07,01,21,45,17.00
2009,07,01,21,46,16.90
2009,07,01,21,47,16.80
2009,07,01,21,48,16.70
2009,07,01,21,49,16.60
2009,07,01,21,50,16.60
2009,07,01,21,51,16.50
2009,07,01,21,52,16.40
2009,07,01,21,53,16.40
2009,07,01,21,54,16.30
2009,07,01,21,55,16.20
2009,07,01,21,56,16.20
2009,07,01,21,57,16.10
2009,07,01,21,58,16.10
2009,07,01,21,59,16.10
2009,07,01,22,00,16.00
2009,07,01,22,01,16.00
2009,07,01,22,02,16.00
2009,07,01,22,03,16.00
2009,07,01,22,04,15.90
2009,07,01,22,05,15.90
2009,07,01,22,06,15.90
2009,07,01,22,07,15.80
2009,07,01,22,08,15.80
2009,07,01,22,09,15.80
2009,07,01,22,10,15.80
2009,07,01,22,11,15.80
2009,07,01,22,12,15.80
2009,07,01,22,13,15.80
2009,07,01,22,14,15.80
2009,07,01,22,15,15.80
2009,07,01,22,16,15.80
2009,07,01,22,17,15.80
2009,07,01,22,18,15.80
2009,07,01,22,19,15.80
2009,07,01,22,20,15.80
2009,07,01,22,21,15.80
2009,07,01,22,22,15.80
2009,07,01,22,23,15.80
